www.pogodaiklimat.ru
ПОГОДА в Платтсбурге
Время
и дата
12:53 27.06
13:53 27.06
14:53 27.06
15:53 27.06
16:53 27.06
17:53 27.06
18:53 27.06
19:53 27.06
20:53 27.06
21:53 27.06
22:53 27.06
23:53 27.06
00:53 28.06
01:53 28.06
02:53 28.06
03:53 28.06
04:53 28.06
05:53 28.06
06:53 28.06
07:45 28.06
07:53 28.06
08:53 28.06
09:01 28.06
09:53 28.06
10:53 28.06
11:53 28.06
12:53 28.06
13:53 28.06
14:53 28.06
15:53 28.06
16:53 28.06
17:53 28.06
18:53 28.06
19:53 28.06
20:53 28.06
21:53 28.06
22:53 28.06
23:53 28.06
00:53 29.06
01:53 29.06
02:53 29.06
03:53 29.06
04:53 29.06
05:53 29.06
06:53 29.06
07:53 29.06
08:53 29.06
09:53 29.06
Ветер
(напр.,м/с)
Видим. Явления Облачность Т
(С)
Тd
(С)
f
(%)
Тe
(С)
Тes
(С)
Комфортность P
(гПа)
Po
(гПа)
Тmin
(С)
Tmax
(С)
R
(мм)
R24
(мм)
S
(см)
нст 1
{4}
16 км слабый дождь 5/5 1950 м +26.1 +10.6 38 +27 +35 жарко 1010.8 1002.1 +20.0 +26.1
нст 1 16 км слабый дождь 8/0 2100 м
[Ac]
+25.6 +10.0 37 +26 +34 жарко 1011.0 1002.5
СЗ 3
{4}
16 км слабый дождь 8/0 2100 м
[Ac]
+25.6 +10.6 39 +27 +29 жарко 1011.4 1002.8
СЗ 2
{4}
16 км слабый дождь 5/0 2550 м
[Ac]
+24.4 +9.4 39 +25 +29 комфорт 1011.9 1003.1
нст 1 16 км слабый дождь 8/0 2550 м
[Ac]
+22.2 +10.6 48 +24 +27 комфорт 1012.3 1003.8
З 1 16 км слабый дождь 8/0 2700 м
[Ac]
+21.7 +10.6 49 +23 +25 комфорт 1012.9 1004.1
нст 1 16 км 10/0 2700 м
[Ac]
+20.6 +11.1 54 +23 +24 комфорт 1013.6 1004.8 +20.6 +26.1
нст 1 16 км слабый дождь 10/0 2700 м
[Ac]
+20.0 +10.6 55 +22 +22 комфорт 1013.9 1005.1
нст 1 16 км слабый дождь 10/0 2850 м
[Ac]
+20.0 +11.1 57 +22 +22 комфорт 1014.8 1006.1
З 1 16 км 10/0 2700 м
[Ac]
+18.9 +12.2 65 +20 +20 1015.3 1006.5
нст 1 16 км слабый дождь 10/0 2400 м
[Ac]
+18.3 +12.2 68 +19 +19 1015.3 1006.5
З 1 16 км слабый дождь 10/0 2850 м
[Ac]
+17.8 +11.7 67 +18 +18 1015.5 1006.8
нст 1 16 км слабый дождь 10/0 2850 м
[Ac]
+17.2 +11.7 70 +17 +17 1015.9 1007.2 +17.2 +20.6
нст 1 16 км 10/0 2550 м
[Ac]
+15.6 +12.8 83 +15 +15 1016.2 1007.5
штиль 0 16 км 10/0 2700 м
[Ac]
+15.0 +13.3 90 +15 +15 1016.7 1008.2
ЮЗ 1 16 км 10/10 1380 м +16.1 +12.2 78 +16 +16 1017.3 1008.5
З 1 16 км слабый дождь 10/8 1410 м
[Ac]
+16.1 +12.8 81 +16 +16 1017.9 1009.2
З 1 16 км 10/10 1500 м +16.7 +12.8 78 +17 +17 1018.8 1010.2
З 1 16 км 10/8 840 м
[Ac]
+17.8 +13.3 75 +18 +18 1019.6 1010.8 +15.0 +17.8
штиль 0 16 км 10/10 810 м +18.3 +13.9 76 +19 +19 1011.2
Ю 1 16 км слабый дождь 10/10 600 м +17.8 +12.8 73 +18 +18 1019.9 1011.2
В 1 16 км 10/8 570 м
[Ac]
+16.7 +12.8 78 +16 +17 1020.4 1011.5
В 1 16 км 10/5 630 м
[Ac]
+16.7 +12.8 78 +17 +20 1011.5
В 1 16 км 2/0 2100 м
[Ac]
+20.0 +13.3 65 +22 +31 комфорт 1020.5 1011.9 0.3
ЮВ 2 16 км 2/2 1950 м +20.0 +12.8 63 +22 +31 комфорт 1020.5 1011.9
нст 1 16 км 10/0 2250 м
[Ac]
+20.6 +12.8 61 +23 +28 комфорт 1020.7 1011.9
нст 1 16 км 8/0 2550 м
[Ac]
+21.7 +12.8 57 +24 +33 комфорт 1020.5 1011.9 +15.6 +21.7 0.3
ЮВ 1 16 км 5/0 2400 м
[Ac]
+21.7 +12.2 55 +24 +34 комфорт 1020.3 1011.5
В 2 16 км 8/0 2250 м
[Ac]
+21.1 +11.7 55 +23 +28 комфорт 1020.0 1011.2
ЮВ 1 16 км 5/0 2400 м
[Ac]
+22.2 +12.2 53 +25 +31 комфорт 1019.8 1011.2
ЮВ 1 16 км ясно +21.7 +11.7 53 +24 +30 комфорт 1019.6 1010.8
ЮВ 1 16 км 2/0 2400 м
[Ac]
+21.1 +11.1 53 +23 +26 комфорт 1019.7 1010.8
штиль 0 16 км 2/2 1950 м +20.0 +11.7 59 +21 +23 комфорт 1019.8 1011.2 +20.0 +22.2
штиль 0 16 км ясно +16.7 +13.3 80 +17 +17 1019.9 1011.2
штиль 0 16 км 2/2 1800 м +16.7 +13.3 80 +17 +17 1020.9 1012.2
штиль 0 16 км ясно +15.0 +13.3 90 +15 +15 1021.0 1012.2
штиль 0 16 км ясно +14.4 +12.8 90 +14 +14 1021.2 1012.5
З 1 16 км ясно +15.6 +11.7 78 +15 +15 1021.2 1012.5
штиль 0 16 км ясно +12.2 +11.1 93 +12 +12 1021.0 1012.2 +11.7 +20.0
штиль 0 16 км ясно +11.7 +10.6 93 +11 +11 1021.4 1012.5
штиль 0 16 км ясно +10.6 +10.0 96 +10 +10 1021.3 1012.5
ЮЗ 1 16 км ясно +12.2 +10.0 86 +11 +11 1021.5 1012.9
штиль 0 16 км ясно +11.1 +10.0 93 +10 +10 1021.9 1013.2
штиль 0 16 км ясно +13.9 +11.7 87 +13 +14 1022.2 1013.5
штиль 0 16 км ясно +17.2 +11.7 70 +17 +20 1021.9 1013.2 +10.0 +17.2 0.3
ЮВ 1 16 км ясно +17.8 +12.8 73 +18 +22 1021.8 1013.2
ЮВ 2 16 км ясно +19.4 +13.9 70 +21 +27 комфорт 1021.7 1012.9
ЮВ 3 16 км ясно +21.7 +14.4 63 +25 +30 комфорт 1021.4 1012.5
Местоположение метеостанции Plattsburgh Air Force Base: широта 44.6500 долгота -73.4667 высота над уровнем моря 72 м.
В архиве по умолчанию представлена погода в Платтсбурге за последние 1-2 суток. Обновление информации о фактической погоде в базе происходит ежечасно! Архивные данные за месяц целиком и за предыдущие месяцы Вы можете получить, выбрав интересующий диапазон дат из раскрывающегося списка и нажав кнопку "Ввод!".
Внимание! Архив погоды МЕТАР в базе сайта по станциям, не включенным в климатический монитор, хранится не более 60 дней. Нет смысла пытаться выбрать более раннюю дату.
*Определитесь, кто Вы:
Внимание! Время в таблицах - местное (без учета летнего времени). Для получения всемирного времени необходимо вычесть поправку, которая равна -5 ч.
Смотрите также архив погоды в соседних городах и на ближайших метеорологических станциях:
Партнеры нашего сайта:      
Пояснения к столбцам:
  • Ветер - указаны скорость ветра в м/с - средняя за 10 мин, порывы в срок и между сроками (в фигурных скобках) и направление, откуда дует ветер: С - северный,
  • СВ - северо-восточный, В - восточный, ЮВ - юго-восточный, Ю - южный, ЮЗ - юго-западный, З - западный, СЗ - северо-западный.
  • Видимость - горизонтальная дальность видимости в метрах или километрах. При видимости от 1 до 10 км при отсутствии осадков обычно наблюдается дымка, при ухудшении видимости до 1 км и менее - туман. В сухую погоду видимость может ухудшаться дымом, пылью или мглою.
  • Явления - указаны атмосферные явления, наблюдавшиеся в срок или в последний час перед сроком; фигурными скобками обозначены явления, наблюдавшиеся между сроками (за 1-3 часа до срока); квадратными скобками обозначены град или гололедные отложения с указанием их диаметра в мм.
  • Облачность - указаны через наклонную черту общая и нижняя облачность в баллах и высота нижней границы облаков в метрах; квадратными скобками обозначены формы облаков: Ci - перистые, Cs - перисто-слоистые, Cc - перисто-кучевые, Ac - высококучевые, As - высокослоистые, Sc - слоисто-кучевые, Ns - слоисто-дождевые, Cu - кучевые, Cb - кучево-дождевые. Подробнее классификацию облаков см. в Атласе облаков (PDF).
  • T - Температура воздуха - температура, измеренная на высоте 2 м над землей.
  • Td - Температура точки росы - температура, при понижении до которой содержащийся в воздухе водяной пар достигнет насыщения.
  • f - Относительная влажность воздуха - влажноcть воздуха, измеренная на высоте 2 м над землей.
  • Te - Эффективная температура - температура, которую ощущает одетый по сезону человек в тени. Характеристика душности погоды. При расчете учитывается влияние влажности воздуха и скорости ветра на теплоощущения человека.
  • Tes - Эффективная температура на солнце - температура, которую ощущает человек, с поправкой на солнечный нагрев. Характеристика знойности погоды. Зависит от высоты солнца над горизонтом, облачности и скорости ветра. Ночью, в пасмурную погоду, а также при ветре 12 м/с и более поправка равна нулю.
  • P - Атмосферное давление - приведенное к уровню моря атмосферное давление.
  • Po - Атмосферное давление - измеренное на уровне метеостанции атмосферное давление.
  • Tmin - Минимальная температура - минимум температуры воздуха на высоте 2 м над землей.
  • Tmax - Максимальная температура - максимум температуры воздуха на высоте 2 м над землей.
  • R - Количество осадков - Количество выпавших осадков за период времени, мм. При наведении курсора мыши на число - период времени, за который выпало указанное количество осадков.
  • R24 - Количество осадков - Количество выпавших осадков за 24 часа, мм.
  • S - Снежный покров - Высота снежного покрова, см. При наведении курсора мыши на число - состояние снежного покрова и степень покрытия местности в баллах.